Time,TemperatureF,DewpointF,PressureIn,WindDirection,WindDirectionDegrees,WindSpeedMPH,WindSpeedGustMPH,Humidity,HourlyPrecipIn,Conditions,Clouds,dailyrainin,SoftwareType,DateUTC
2013-05-15 00:00:00,41.0,35.3,30.09,SE,136,0.0,0.0,80,0.00,,,0.00,Wunderground PWS Mod,2013-05-15 04:00:00,
2013-05-15 00:11:00,40.5,35.1,30.09,SE,136,0.0,0.0,81,0.00,,,0.00,Wunderground PWS Mod,2013-05-15 04:11:00,
2013-05-15 00:15:00,39.9,34.5,30.08,N/A,-737280,0.0,0.0,81,0.00,,,0.00,Wunderground PWS Mod,2013-05-15 04:15:00,
2013-05-15 00:20:00,40.2,35.1,30.08,SE,136,0.0,0.0,82,0.00,,,0.00,Wunderground PWS Mod,2013-05-15 04:20:00,
2013-05-15 00:31:00,39.9,34.5,30.08,SE,136,0.0,0.0,81,0.00,,,0.00,Wunderground PWS Mod,2013-05-15 04:31:00,
2013-05-15 00:41:00,39.6,34.6,30.08,SE,136,0.0,0.0,82,0.00,,,0.00,Wunderground PWS Mod,2013-05-15 04:41:00,
2013-05-15 00:51:00,39.3,34.3,30.08,SE,136,0.0,0.0,82,0.00,,,0.00,Wunderground PWS Mod,2013-05-15 04:51:00,
2013-05-15 01:01:00,39.1,34.4,30.08,SE,136,0.0,0.0,83,0.00,,,0.00,Wunderground PWS Mod,2013-05-15 05:01:00,
2013-05-15 01:11:00,38.9,34.2,30.08,SE,136,0.0,0.0,83,0.00,,,0.00,Wunderground PWS Mod,2013-05-15 05:11:00,
2013-05-15 01:15:00,38.3,33.9,30.08,N/A,-737280,0.0,0.0,84,0.00,,,0.00,Wunderground PWS Mod,2013-05-15 05:15:00,
2013-05-15 01:20:00,38.6,33.9,30.08,SE,136,0.0,0.0,83,0.00,,,0.00,Wunderground PWS Mod,2013-05-15 05:20:00,
2013-05-15 01:30:00,38.3,33.9,30.08,SE,136,0.0,0.0,84,0.00,,,0.00,Wunderground PWS Mod,2013-05-15 05:30:00,
2013-05-15 01:41:00,38.1,33.7,30.08,SE,136,0.0,0.0,84,0.00,,,0.00,Wunderground PWS Mod,2013-05-15 05:41:00,
2013-05-15 01:51:00,38.0,33.6,30.08,SE,136,0.0,0.0,84,0.00,,,0.00,Wunderground PWS Mod,2013-05-15 05:51:00,
2013-05-15 02:01:00,37.8,33.4,30.08,SE,136,0.0,0.0,84,0.00,,,0.00,Wunderground PWS Mod,2013-05-15 06:01:00,
2013-05-15 02:11:00,37.7,33.0,30.08,SE,136,0.0,0.0,83,0.00,,,0.00,Wunderground PWS Mod,2013-05-15 06:11:00,
2013-05-15 02:15:00,37.3,33.2,30.07,N/A,-737280,0.0,0.0,85,0.00,,,0.00,Wunderground PWS Mod,2013-05-15 06:15:00,
2013-05-15 02:21:00,37.5,33.1,30.08,SE,136,0.0,0.0,84,0.00,,,0.00,Wunderground PWS Mod,2013-05-15 06:21:00,
2013-05-15 02:30:00,37.3,33.2,30.07,SE,136,0.0,0.0,85,0.00,,,0.00,Wunderground PWS Mod,2013-05-15 06:30:00,
2013-05-15 02:40:00,37.1,33.0,30.08,SE,136,0.0,0.0,85,0.00,,,0.00,Wunderground PWS Mod,2013-05-15 06:40:00,
2013-05-15 02:50:00,36.9,33.1,30.08,SE,136,0.0,0.0,86,0.00,,,0.00,Wunderground PWS Mod,2013-05-15 06:50:00,
2013-05-15 03:00:00,36.8,33.0,30.07,SE,136,0.0,0.0,86,0.00,,,0.00,Wunderground PWS Mod,2013-05-15 07:00:00,
2013-05-15 03:11:00,36.7,32.9,30.07,SE,136,0.0,0.0,86,0.00,,,0.00,Wunderground PWS Mod,2013-05-15 07:11:00,
2013-05-15 03:15:00,36.3,32.8,30.07,N/A,-737280,0.0,0.0,87,0.00,,,0.00,Wunderground PWS Mod,2013-05-15 07:15:00,
2013-05-15 03:20:00,36.3,32.8,30.07,N/A,-737280,0.0,0.0,87,0.00,,,0.00,Wunderground PWS Mod,2013-05-15 07:20:00,
2013-05-15 03:21:00,36.4,32.6,30.07,SE,136,0.0,0.0,86,0.00,,,0.00,Wunderground PWS Mod,2013-05-15 07:21:00,
2013-05-15 03:25:00,36.3,32.8,30.07,N/A,-737280,0.0,0.0,87,0.00,,,0.00,Wunderground PWS Mod,2013-05-15 07:25:00,
2013-05-15 03:30:00,36.3,32.8,30.07,N/A,-737280,0.0,0.0,87,0.00,,,0.00,Wunderground PWS Mod,2013-05-15 07:30:00,
2013-05-15 03:35:00,36.3,32.8,30.07,N/A,-737280,0.0,0.0,87,0.00,,,0.00,Wunderground PWS Mod,2013-05-15 07:35:00,
2013-05-15 03:41:00,36.2,32.7,30.07,SE,136,0.0,0.0,87,0.00,,,0.00,Wunderground PWS Mod,2013-05-15 07:41:00,
2013-05-15 03:51:00,36.0,32.8,30.06,SE,136,0.0,0.0,88,0.00,,,0.00,Wunderground PWS Mod,2013-05-15 07:51:00,
2013-05-15 04:00:00,35.8,32.6,30.06,SE,136,0.0,0.0,88,0.00,,,0.00,Wunderground PWS Mod,2013-05-15 08:00:00,
2013-05-15 04:11:00,35.7,32.5,30.06,SE,136,0.0,0.0,88,0.00,,,0.00,Wunderground PWS Mod,2013-05-15 08:11:00,
2013-05-15 04:15:00,35.5,32.6,30.05,N/A,-737280,0.0,0.0,89,0.00,,,0.00,Wunderground PWS Mod,2013-05-15 08:15:00,
2013-05-15 04:21:00,35.5,32.3,30.06,SE,136,0.0,0.0,88,0.00,,,0.00,Wunderground PWS Mod,2013-05-15 08:21:00,
2013-05-15 04:31:00,35.5,32.6,30.05,SE,136,0.0,0.0,89,0.00,,,0.00,Wunderground PWS Mod,2013-05-15 08:31:00,
2013-05-15 04:41:00,35.5,32.6,30.05,SE,136,0.0,0.0,89,0.00,,,0.00,Wunderground PWS Mod,2013-05-15 08:41:00,
2013-05-15 04:51:00,35.6,33.0,30.05,SE,136,0.0,0.0,90,0.00,,,0.00,Wunderground PWS Mod,2013-05-15 08:51:00,
2013-05-15 05:01:00,35.6,33.0,30.05,SE,136,0.0,0.0,90,0.00,,,0.00,Wunderground PWS Mod,2013-05-15 09:01:00,
2013-05-15 05:11:00,35.8,33.2,30.05,SE,136,0.0,0.0,90,0.00,,,0.00,Wunderground PWS Mod,2013-05-15 09:11:00,
2013-05-15 05:15:00,36.0,33.4,30.05,N/A,-737280,0.0,0.0,90,0.00,,,0.00,Wunderground PWS Mod,2013-05-15 09:15:00,
2013-05-15 05:21:00,35.8,33.2,30.05,SE,136,0.0,0.0,90,0.00,,,0.00,Wunderground PWS Mod,2013-05-15 09:21:00,
2013-05-15 05:31:00,36.0,33.4,30.05,SE,136,0.0,0.0,90,0.00,,,0.00,Wunderground PWS Mod,2013-05-15 09:31:00,
2013-05-15 05:41:00,36.2,33.8,30.05,SE,136,0.0,0.0,91,0.00,,,0.00,Wunderground PWS Mod,2013-05-15 09:41:00,
2013-05-15 05:50:00,36.8,34.4,30.04,SE,136,0.0,0.0,91,0.00,,,0.00,Wunderground PWS Mod,2013-05-15 09:50:00,
2013-05-15 06:00:00,37.3,34.9,30.05,SE,136,0.0,0.0,91,0.00,,,0.00,Wunderground PWS Mod,2013-05-15 10:00:00,
2013-05-15 06:11:00,38.0,35.0,30.05,SE,136,0.0,0.0,89,0.00,,,0.00,Wunderground PWS Mod,2013-05-15 10:11:00,
2013-05-15 06:15:00,39.3,35.2,30.06,N/A,-737280,0.0,0.0,85,0.00,,,0.00,Wunderground PWS Mod,2013-05-15 10:15:00,
2013-05-15 06:21:00,38.8,35.3,30.05,West,275,0.0,0.0,87,0.00,,,0.00,Wunderground PWS Mod,2013-05-15 10:21:00,
2013-05-15 06:31:00,39.3,35.5,30.06,West,275,0.0,0.0,86,0.00,,,0.00,Wunderground PWS Mod,2013-05-15 10:31:00,
2013-05-15 06:41:00,39.6,35.5,30.06,NE,56,0.0,0.0,85,0.00,,,0.00,Wunderground PWS Mod,2013-05-15 10:41:00,
2013-05-15 06:51:00,39.9,35.5,30.05,NNE,28,0.0,0.0,84,0.00,,,0.00,Wunderground PWS Mod,2013-05-15 10:51:00,
2013-05-15 07:01:00,40.4,36.2,30.04,NNE,28,0.0,0.0,85,0.00,,,0.00,Wunderground PWS Mod,2013-05-15 11:01:00,
2013-05-15 07:11:00,41.1,36.3,30.04,NNE,28,0.0,0.0,83,0.00,,,0.00,Wunderground PWS Mod,2013-05-15 11:11:00,
2013-05-15 07:15:00,42.3,37.5,30.03,N/A,-737280,0.0,0.0,83,0.00,,,0.00,Wunderground PWS Mod,2013-05-15 11:15:00,
2013-05-15 07:21:00,41.7,36.6,30.04,NNE,28,0.0,0.0,82,0.00,,,0.00,Wunderground PWS Mod,2013-05-15 11:21:00,
2013-05-15 07:31:00,42.3,37.5,30.03,NNE,28,0.0,0.0,83,0.00,,,0.00,Wunderground PWS Mod,2013-05-15 11:31:00,
2013-05-15 07:41:00,43.1,38.0,30.02,ENE,59,0.0,0.0,82,0.00,,,0.00,Wunderground PWS Mod,2013-05-15 11:41:00,
2013-05-15 07:51:00,45.0,38.6,30.03,ENE,59,0.0,0.0,78,0.00,,,0.00,Wunderground PWS Mod,2013-05-15 11:51:00,
2013-05-15 08:01:00,45.2,37.4,30.02,ENE,59,0.0,0.0,74,0.00,,,0.00,Wunderground PWS Mod,2013-05-15 12:01:00,
2013-05-15 08:11:00,45.5,38.0,30.02,ENE,59,0.0,0.0,75,0.00,,,0.00,Wunderground PWS Mod,2013-05-15 12:11:00,
2013-05-15 08:15:00,46.3,37.8,30.02,N/A,-737280,0.0,0.0,72,0.00,,,0.00,Wunderground PWS Mod,2013-05-15 12:15:00,
2013-05-15 08:21:00,45.9,37.4,30.02,ENE,59,0.0,0.0,72,0.00,,,0.00,Wunderground PWS Mod,2013-05-15 12:21:00,
2013-05-15 08:31:00,46.3,37.8,30.02,ENE,59,0.0,0.0,72,0.00,,,0.00,Wunderground PWS Mod,2013-05-15 12:31:00,
2013-05-15 08:41:00,46.9,38.3,30.01,ENE,59,0.0,0.0,72,0.00,,,0.00,Wunderground PWS Mod,2013-05-15 12:41:00,
2013-05-15 08:51:00,48.8,38.7,30.01,ENE,57,0.0,0.0,68,0.00,,,0.00,Wunderground PWS Mod,2013-05-15 12:51:00,
2013-05-15 09:01:00,49.8,37.7,29.99,SSW,202,0.0,0.0,63,0.00,,,0.00,Wunderground PWS Mod,2013-05-15 13:01:00,
2013-05-15 09:11:00,50.6,39.3,29.99,West,271,0.0,0.0,65,0.00,,,0.00,Wunderground PWS Mod,2013-05-15 13:11:00,
2013-05-15 09:15:00,52.0,39.8,29.99,N/A,-737280,0.0,0.0,63,0.00,,,0.00,Wunderground PWS Mod,2013-05-15 13:15:00,
2013-05-15 09:20:00,51.3,38.7,29.99,South,190,0.0,0.0,62,0.00,,,0.00,Wunderground PWS Mod,2013-05-15 13:20:00,
2013-05-15 09:30:00,51.9,40.1,29.99,SW,226,0.0,0.0,64,0.00,,,0.00,Wunderground PWS Mod,2013-05-15 13:30:00,
2013-05-15 09:40:00,52.9,39.0,29.98,SW,226,0.0,0.0,59,0.00,,,0.00,Wunderground PWS Mod,2013-05-15 13:40:00,
2013-05-15 09:51:00,53.0,40.7,29.98,West,276,0.0,0.0,63,0.00,,,0.00,Wunderground PWS Mod,2013-05-15 13:51:00,
2013-05-15 10:01:00,53.1,41.6,29.98,West,276,0.0,0.0,65,0.00,,,0.00,Wunderground PWS Mod,2013-05-15 14:01:00,
2013-05-15 10:11:00,53.2,41.3,29.97,West,276,0.0,0.0,64,0.00,,,0.00,Wunderground PWS Mod,2013-05-15 14:11:00,
2013-05-15 10:15:00,53.1,40.0,29.98,N/A,-737280,0.0,0.0,61,0.00,,,0.00,Wunderground PWS Mod,2013-05-15 14:15:00,
2013-05-15 10:21:00,53.1,40.4,29.97,West,276,0.0,0.0,62,0.00,,,0.00,Wunderground PWS Mod,2013-05-15 14:21:00,
2013-05-15 10:31:00,53.1,40.0,29.98,West,276,0.0,0.0,61,0.00,,,0.00,Wunderground PWS Mod,2013-05-15 14:31:00,
2013-05-15 10:41:00,53.1,41.2,29.97,West,276,0.0,0.0,64,0.00,,,0.00,Wunderground PWS Mod,2013-05-15 14:41:00,
2013-05-15 10:51:00,53.2,41.7,29.98,West,276,0.0,0.0,65,0.00,,,0.00,Wunderground PWS Mod,2013-05-15 14:51:00,
2013-05-15 11:01:00,53.7,42.2,29.98,NW,306,0.0,0.0,65,0.00,,,0.00,Wunderground PWS Mod,2013-05-15 15:01:00,
2013-05-15 11:11:00,53.8,41.1,29.98,West,275,0.0,0.0,62,0.00,,,0.00,Wunderground PWS Mod,2013-05-15 15:11:00,
2013-05-15 11:15:00,53.2,41.7,29.98,N/A,-737280,0.0,0.0,65,0.00,,,0.01,Wunderground PWS Mod,2013-05-15 15:15:00,
2013-05-15 11:20:00,53.5,41.6,29.98,West,275,0.0,0.0,64,0.00,,,0.00,Wunderground PWS Mod,2013-05-15 15:20:00,
2013-05-15 11:31:00,53.2,41.7,29.98,West,275,0.0,0.0,65,0.00,,,0.00,Wunderground PWS Mod,2013-05-15 15:31:00,
2013-05-15 11:41:00,52.7,43.2,29.96,WSW,247,0.0,0.0,70,0.00,,,0.00,Wunderground PWS Mod,2013-05-15 15:41:00,
2013-05-15 11:51:00,52.2,43.8,29.96,WSW,248,0.0,0.0,73,0.00,,,0.01,Wunderground PWS Mod,2013-05-15 15:51:00,
2013-05-15 12:01:00,51.5,44.2,29.96,WSW,248,0.0,0.0,76,0.00,,,0.01,Wunderground PWS Mod,2013-05-15 16:01:00,
2013-05-15 12:11:00,51.0,44.4,29.93,WSW,248,0.0,0.0,78,0.00,,,0.02,Wunderground PWS Mod,2013-05-15 16:11:00,
2013-05-15 12:15:00,50.3,45.0,29.91,N/A,-737280,0.0,0.0,82,0.03,,,0.03,Wunderground PWS Mod,2013-05-15 16:15:00,
2013-05-15 12:20:00,50.7,44.8,29.93,WSW,248,0.0,0.0,80,0.00,,,0.02,Wunderground PWS Mod,2013-05-15 16:20:00,
2013-05-15 12:30:00,50.3,45.0,29.91,WSW,248,0.0,0.0,82,0.00,,,0.03,Wunderground PWS Mod,2013-05-15 16:30:00,
2013-05-15 12:41:00,50.3,45.6,29.91,WSW,248,0.0,0.0,84,0.00,,,0.03,Wunderground PWS Mod,2013-05-15 16:41:00,
2013-05-15 12:51:00,51.0,46.3,29.89,WSW,248,0.0,0.0,84,0.00,,,0.03,Wunderground PWS Mod,2013-05-15 16:51:00,
2013-05-15 13:01:00,51.5,46.2,29.88,West,269,0.0,0.0,82,0.00,,,0.03,Wunderground PWS Mod,2013-05-15 17:01:00,
2013-05-15 13:11:00,53.0,48.0,29.88,West,281,0.0,0.0,83,0.00,,,0.03,Wunderground PWS Mod,2013-05-15 17:11:00,
2013-05-15 13:15:00,56.8,49.7,29.87,N/A,-737280,0.0,0.0,77,0.00,,,0.03,Wunderground PWS Mod,2013-05-15 17:15:00,
2013-05-15 13:20:00,54.9,48.2,29.88,WNW,285,0.0,0.0,78,0.00,,,0.03,Wunderground PWS Mod,2013-05-15 17:20:00,
2013-05-15 13:31:00,56.7,49.6,29.87,West,270,0.0,0.0,77,0.00,,,0.03,Wunderground PWS Mod,2013-05-15 17:31:00,
2013-05-15 13:41:00,57.7,49.5,29.85,WSW,248,0.0,0.0,74,0.00,,,0.03,Wunderground PWS Mod,2013-05-15 17:41:00,
2013-05-15 13:51:00,58.4,49.8,29.85,West,267,0.0,0.0,73,0.00,,,0.03,Wunderground PWS Mod,2013-05-15 17:51:00,
2013-05-15 14:01:00,59.9,50.5,29.85,SW,231,0.0,0.0,71,0.00,,,0.03,Wunderground PWS Mod,2013-05-15 18:01:00,
2013-05-15 14:11:00,59.3,49.9,29.85,West,266,0.0,0.0,71,0.00,,,0.03,Wunderground PWS Mod,2013-05-15 18:11:00,
2013-05-15 14:15:00,60.8,51.3,29.82,N/A,-737280,0.0,0.0,71,0.00,,,0.03,Wunderground PWS Mod,2013-05-15 18:15:00,
2013-05-15 14:21:00,60.0,50.6,29.84,SSW,196,0.0,0.0,71,0.00,,,0.03,Wunderground PWS Mod,2013-05-15 18:21:00,
2013-05-15 14:31:00,60.7,50.9,29.82,WSW,252,0.0,0.0,70,0.00,,,0.03,Wunderground PWS Mod,2013-05-15 18:31:00,
2013-05-15 14:41:00,61.7,51.0,29.81,West,265,0.0,0.0,68,0.00,,,0.03,Wunderground PWS Mod,2013-05-15 18:41:00,
2013-05-15 14:51:00,61.1,50.5,29.80,West,259,0.0,0.0,68,0.00,,,0.03,Wunderground PWS Mod,2013-05-15 18:51:00,
2013-05-15 15:01:00,61.4,50.3,29.79,SSE,163,0.0,0.0,67,0.00,,,0.03,Wunderground PWS Mod,2013-05-15 19:01:00,
2013-05-15 15:11:00,62.2,50.7,29.79,SSW,200,0.0,0.0,66,0.00,,,0.03,Wunderground PWS Mod,2013-05-15 19:11:00,
2013-05-15 15:15:00,63.1,49.9,29.75,N/A,-737280,0.0,0.0,62,0.00,,,0.03,Wunderground PWS Mod,2013-05-15 19:15:00,
2013-05-15 15:20:00,62.8,50.9,29.77,WSW,239,0.0,0.0,65,0.00,,,0.03,Wunderground PWS Mod,2013-05-15 19:20:00,
2013-05-15 15:30:00,63.2,50.8,29.75,South,173,0.0,0.0,64,0.00,,,0.03,Wunderground PWS Mod,2013-05-15 19:30:00,
2013-05-15 15:40:00,63.6,49.9,29.73,WSW,243,0.0,0.0,61,0.00,,,0.03,Wunderground PWS Mod,2013-05-15 19:40:00,
2013-05-15 15:51:00,64.5,50.3,29.72,WNW,287,0.0,0.0,60,0.00,,,0.03,Wunderground PWS Mod,2013-05-15 19:51:00,
2013-05-15 16:01:00,64.9,51.1,29.72,West,259,0.0,0.0,61,0.00,,,0.03,Wunderground PWS Mod,2013-05-15 20:01:00,
2013-05-15 16:11:00,65.6,50.0,29.71,West,281,0.0,0.0,57,0.00,,,0.03,Wunderground PWS Mod,2013-05-15 20:11:00,
2013-05-15 16:15:00,65.6,50.4,29.70,N/A,-737280,0.0,0.0,58,0.00,,,0.03,Wunderground PWS Mod,2013-05-15 20:15:00,
2013-05-15 16:21:00,65.6,50.4,29.70,South,174,0.0,0.0,58,0.00,,,0.03,Wunderground PWS Mod,2013-05-15 20:21:00,
2013-05-15 16:31:00,65.6,50.4,29.70,West,281,0.0,0.0,58,0.00,,,0.03,Wunderground PWS Mod,2013-05-15 20:31:00,
2013-05-15 16:41:00,66.1,51.4,29.70,SW,233,0.0,0.0,59,0.00,,,0.03,Wunderground PWS Mod,2013-05-15 20:41:00,
2013-05-15 16:50:00,65.9,51.6,29.70,SSW,192,0.0,0.0,60,0.00,,,0.03,Wunderground PWS Mod,2013-05-15 20:50:00,
2013-05-15 17:00:00,65.9,51.6,29.71,South,176,0.0,0.0,60,0.00,,,0.03,Wunderground PWS Mod,2013-05-15 21:00:00,
2013-05-15 17:11:00,65.9,51.6,29.70,South,179,0.0,0.0,60,0.00,,,0.03,Wunderground PWS Mod,2013-05-15 21:11:00,
2013-05-15 17:15:00,66.3,52.4,29.69,N/A,-737280,0.0,0.0,61,0.00,,,0.03,Wunderground PWS Mod,2013-05-15 21:15:00,
2013-05-15 17:21:00,66.1,52.3,29.69,SW,218,0.0,0.0,61,0.00,,,0.03,Wunderground PWS Mod,2013-05-15 21:21:00,
2013-05-15 17:31:00,66.3,52.4,29.69,West,278,0.0,0.0,61,0.00,,,0.03,Wunderground PWS Mod,2013-05-15 21:31:00,
2013-05-15 17:41:00,66.3,52.9,29.68,SW,229,0.0,0.0,62,0.00,,,0.03,Wunderground PWS Mod,2013-05-15 21:41:00,
2013-05-15 17:50:00,66.3,52.9,29.68,SSW,192,0.0,0.0,62,0.00,,,0.03,Wunderground PWS Mod,2013-05-15 21:50:00,
2013-05-15 18:00:00,66.1,53.1,29.67,SSE,150,0.0,0.0,63,0.00,,,0.03,Wunderground PWS Mod,2013-05-15 22:00:00,
2013-05-15 18:11:00,65.9,53.4,29.67,West,273,0.0,0.0,64,0.00,,,0.03,Wunderground PWS Mod,2013-05-15 22:11:00,
2013-05-15 18:15:00,65.1,53.0,29.66,N/A,-737280,0.0,0.0,65,0.00,,,0.03,Wunderground PWS Mod,2013-05-15 22:15:00,
2013-05-15 18:21:00,65.5,53.0,29.66,West,273,0.0,0.0,64,0.00,,,0.03,Wunderground PWS Mod,2013-05-15 22:21:00,
2013-05-15 18:31:00,65.1,53.5,29.66,West,273,0.0,0.0,66,0.00,,,0.03,Wunderground PWS Mod,2013-05-15 22:31:00,
2013-05-15 18:40:00,65.0,53.4,29.65,WSW,248,0.0,0.0,66,0.00,,,0.03,Wunderground PWS Mod,2013-05-15 22:40:00,
2013-05-15 18:50:00,65.3,54.1,29.65,SW,228,0.0,0.0,67,0.00,,,0.03,Wunderground PWS Mod,2013-05-15 22:50:00,
2013-05-15 19:00:00,65.5,54.2,29.66,West,276,0.0,0.0,67,0.00,,,0.03,Wunderground PWS Mod,2013-05-15 23:00:00,
2013-05-15 19:11:00,65.8,54.5,29.66,West,276,0.0,0.0,67,0.00,,,0.03,Wunderground PWS Mod,2013-05-15 23:11:00,
2013-05-15 19:15:00,65.3,54.9,29.66,N/A,-737280,0.0,0.0,69,0.00,,,0.03,Wunderground PWS Mod,2013-05-15 23:15:00,
2013-05-15 19:21:00,65.7,54.8,29.67,WSW,248,0.0,0.0,68,0.00,,,0.03,Wunderground PWS Mod,2013-05-15 23:21:00,
2013-05-15 19:31:00,65.4,55.0,29.66,WSW,248,0.0,0.0,69,0.00,,,0.03,Wunderground PWS Mod,2013-05-15 23:31:00,
2013-05-15 19:41:00,64.9,54.9,29.66,WSW,248,0.0,0.0,70,0.00,,,0.03,Wunderground PWS Mod,2013-05-15 23:41:00,
2013-05-15 19:51:00,64.3,54.3,29.66,WSW,248,0.0,0.0,70,0.00,,,0.03,Wunderground PWS Mod,2013-05-15 23:51:00,
2013-05-15 20:00:00,64.0,54.4,29.66,WSW,248,0.0,0.0,71,0.00,,,0.03,Wunderground PWS Mod,2013-05-16 00:00:00,
2013-05-15 20:11:00,63.6,54.4,29.66,WSW,248,0.0,0.0,72,0.00,,,0.03,Wunderground PWS Mod,2013-05-16 00:11:00,
2013-05-15 20:15:00,62.8,54.4,29.67,N/A,-737280,0.0,0.0,74,0.00,,,0.03,Wunderground PWS Mod,2013-05-16 00:15:00,
2013-05-15 20:21:00,63.1,54.3,29.66,WSW,248,0.0,0.0,73,0.00,,,0.03,Wunderground PWS Mod,2013-05-16 00:21:00,
2013-05-15 20:31:00,62.8,54.4,29.67,WSW,248,0.0,0.0,74,0.00,,,0.03,Wunderground PWS Mod,2013-05-16 00:31:00,
2013-05-15 20:41:00,62.4,54.0,29.66,WSW,248,0.0,0.0,74,0.00,,,0.03,Wunderground PWS Mod,2013-05-16 00:41:00,
2013-05-15 20:50:00,62.1,54.1,29.67,WSW,248,0.0,0.0,75,0.00,,,0.03,Wunderground PWS Mod,2013-05-16 00:50:00,
2013-05-15 21:01:00,61.9,54.2,29.68,WSW,248,0.0,0.0,76,0.00,,,0.03,Wunderground PWS Mod,2013-05-16 01:01:00,
2013-05-15 21:11:00,61.7,54.1,29.69,WNW,287,0.0,0.0,76,0.00,,,0.03,Wunderground PWS Mod,2013-05-16 01:11:00,
2013-05-15 21:15:00,61.0,54.1,29.70,N/A,-737280,0.0,0.0,78,0.00,,,0.03,Wunderground PWS Mod,2013-05-16 01:15:00,
2013-05-15 21:21:00,61.4,54.1,29.70,WNW,287,0.0,0.0,77,0.00,,,0.03,Wunderground PWS Mod,2013-05-16 01:21:00,
2013-05-15 21:31:00,61.0,54.1,29.70,WNW,287,0.0,0.0,78,0.00,,,0.03,Wunderground PWS Mod,2013-05-16 01:31:00,
2013-05-15 21:40:00,61.1,53.8,29.70,WNW,287,0.0,0.0,77,0.00,,,0.03,Wunderground PWS Mod,2013-05-16 01:40:00,
2013-05-15 21:51:00,61.0,54.1,29.70,WNW,287,0.0,0.0,78,0.00,,,0.03,Wunderground PWS Mod,2013-05-16 01:51:00,
2013-05-15 22:01:00,60.5,54.0,29.71,WNW,287,0.0,0.0,79,0.00,,,0.03,Wunderground PWS Mod,2013-05-16 02:01:00,
2013-05-15 22:11:00,59.9,53.4,29.71,WNW,287,0.0,0.0,79,0.00,,,0.03,Wunderground PWS Mod,2013-05-16 02:11:00,
2013-05-15 22:15:00,58.4,52.9,29.71,N/A,-737280,0.0,0.0,82,0.00,,,0.03,Wunderground PWS Mod,2013-05-16 02:15:00,
2013-05-15 22:21:00,59.1,53.3,29.71,WNW,287,0.0,0.0,81,0.00,,,0.03,Wunderground PWS Mod,2013-05-16 02:21:00,
2013-05-15 22:30:00,58.4,52.9,29.71,WNW,287,0.0,0.0,82,0.00,,,0.03,Wunderground PWS Mod,2013-05-16 02:30:00,
2013-05-15 22:40:00,57.7,52.6,29.72,WNW,287,0.0,0.0,83,0.00,,,0.03,Wunderground PWS Mod,2013-05-16 02:40:00,
2013-05-15 22:51:00,57.2,52.4,29.72,WNW,287,0.0,0.0,84,0.00,,,0.03,Wunderground PWS Mod,2013-05-16 02:51:00,
2013-05-15 23:01:00,56.7,52.2,29.71,WNW,287,0.0,0.0,85,0.00,,,0.03,Wunderground PWS Mod,2013-05-16 03:01:00,
2013-05-15 23:11:00,56.2,51.7,29.70,WNW,287,0.0,0.0,85,0.00,,,0.03,Wunderground PWS Mod,2013-05-16 03:11:00,
2013-05-15 23:15:00,55.5,51.7,29.72,N/A,-737280,0.0,0.0,87,0.00,,,0.03,Wunderground PWS Mod,2013-05-16 03:15:00,
2013-05-15 23:21:00,55.9,51.8,29.71,WNW,287,0.0,0.0,86,0.00,,,0.03,Wunderground PWS Mod,2013-05-16 03:21:00,
2013-05-15 23:31:00,55.5,51.7,29.72,WNW,287,0.0,0.0,87,0.00,,,0.03,Wunderground PWS Mod,2013-05-16 03:31:00,
2013-05-15 23:41:00,55.1,51.6,29.71,WNW,287,0.0,0.0,88,0.00,,,0.03,Wunderground PWS Mod,2013-05-16 03:41:00,
2013-05-15 23:51:00,54.7,51.2,29.72,WNW,287,0.0,0.0,88,0.00,,,0.03,Wunderground PWS Mod,2013-05-16 03:51:00,